sat.trackr.live / text

‹ back to catalog

STARLINK-31353

NORAD 58980 · 2024-031R

PAYLOAD ACTIVE UNKNOWN

§ Identity

Operator
Country
US
Launch date
2024-02-15
Launch site
AFWTR
Launch vehicle
Mass (kg)
RCS (m²)

Purposes: comms

External: N2YO · Heavens-Above · Gunter

§ Orbital elements

Epoch: 2026-09-20T21:51:41.404896Z

Period
93.85 min
Inclination
53.1586°
Eccentricity
0.0001172
Mean motion
15.34394180 rev/d
Perigee alt
461.9 km
Apogee alt
463.5 km
Semi-major
6,840.9 km
B*
3.8652e-5
RAAN
107.6975°
Arg perigee
83.0981°
Mean anomaly
277.0155°
Rev number
14,643

§ Raw data

STARLINK-313531 58980U 24031R   26263.91089589  .00000930  00000+0  38652-4 0  99972 58980  53.1586 107.6975 0001172  83.0981 277.0155 15.34394180146438

JSON: /api/v1/satellites/58980 · /tle

For live sub-satellite position, see the globe view (requires WebGL).

§ Visibility from observer

Set your observer location to see the next 7 days of passes ≥ 10°. The values pass through the URL so the page stays shareable.

No JS? Fill the form by hand. The geolocation button needs JavaScript.